This demonstration page uses our WeatherBlox Daily Observations layout. Learn more.

Left ArrowRight Arrow

39.92423, -83.80882

Hourly Observations for August 27, 2022

Temp ( °F °C ) Dew Point ( °F °C ) Humidity (%) Winds ( mph kmh ) Pressure ( in mb ) Visibility ( mi km ) Precip ( " mm )
12:56 am 00:56 Clear N/A N/A N/A NE 5 7 30.14 1021 8 13 0.00 0.00
1:19 am 01:19 Hazy N/A N/A N/A Calm 30.14 1021 5 8 0.00 0.00
1:56 am 01:56 Clear N/A N/A N/A Calm 30.14 1021 8 13 0.00 0.00
2:56 am 02:56 Hazy N/A N/A N/A N 3 6 30.14 1021 5 8 0.00 0.00
3:31 am 03:31 Mostly Cloudy with Fog N/A N/A N/A Calm 30.13 1020 0 0 0.00 0.00
3:51 am 03:51 Mostly Cloudy with Mist and Fog N/A N/A N/A Calm 30.13 1020 2 3 0.00 0.00
3:56 am 03:56 Mostly Cloudy with Fog N/A N/A N/A Calm 30.13 1020 1 1 0.00 0.00
4:23 am 04:23 Partly Cloudy with Mist and Fog N/A N/A N/A N 3 6 30.13 1020 2 3 0.00 0.00
4:30 am 04:30 Mostly Clear with Mist and Fog N/A N/A N/A Calm 30.14 1021 1 1 0.00 0.00
4:45 am 04:45 Partly Cloudy with Mist and Fog N/A N/A N/A N 3 6 30.13 1020 1 2 0.00 0.00
4:50 am 04:50 Mostly Cloudy with Mist and Fog N/A N/A N/A Calm 30.13 1020 1 1 0.00 0.00
4:56 am 04:56 Mostly Cloudy with Fog N/A N/A N/A Calm 30.13 1020 1 1 0.00 0.00
5:14 am 05:14 Partly Cloudy with Mist and Fog N/A N/A N/A Calm 30.14 1021 2 3 0.00 0.00
5:23 am 05:23 Partly Cloudy with Mist and Fog N/A N/A N/A NE 3 6 30.13 1020 1 2 0.00 0.00
5:29 am 05:29 Mostly Clear with Mist and Fog N/A N/A N/A NNE 5 7 30.13 1020 1 1 0.00 0.00
5:37 am 05:37 Mostly Clear with Fog N/A N/A N/A Calm 30.13 1020 1 1 0.00 0.00
5:45 am 05:45 Mostly Clear with Mist and Fog N/A N/A N/A Calm 30.13 1020 1 2 0.00 0.00
5:56 am 05:56 Mostly Clear with Fog N/A N/A N/A Calm 30.14 1021 1 1 0.00 0.00
6:10 am 06:10 Clear with Fog N/A N/A N/A Calm 30.14 1021 1 1 0.00 0.00
6:20 am 06:20 Mostly Clear with Fog N/A N/A N/A Calm 30.14 1021 1 1 0.00 0.00
6:35 am 06:35 Mostly Cloudy with Fog N/A N/A N/A Calm 30.14 1021 1 1 0.00 0.00
6:44 am 06:44 Mostly Cloudy with Fog N/A N/A N/A ENE 3 6 30.14 1021 0 0 0.00 0.00
6:56 am 06:56 Cloudy with Fog N/A N/A N/A NE 5 7 30.14 1021 0 0 0.00 0.00
7:43 am 07:43 Sunny with Mist and Fog N/A N/A N/A NE 3 6 30.16 1021 1 2 0.00 0.00
7:56 am 07:56 Partly Cloudy with Mist and Fog N/A N/A N/A E 3 6 30.16 1021 2 3 0.00 0.00
8:16 am 08:16 Mostly Cloudy with Mist and Fog N/A N/A N/A Calm 30.18 1022 3 5 0.00 0.00
8:31 am 08:31 Hazy N/A N/A N/A NE 5 7 30.18 1022 6 10 0.00 0.00
8:56 am 08:56 Sunny N/A N/A N/A ENE 6 9 30.18 1022 8 13 0.00 0.00
9:56 am 09:56 Mostly Sunny 70 21.1 70 21.1 100 100 ESE 7 11 30.11 1020 10 16 0.00 0.00
10:36 am 10:36 Mostly Cloudy 73 23 70 21 89 89 VRB 6 9 30.09 1019 10 16 0.00 0.00
10:48 am 10:48 Mostly Cloudy 72 22 70 21 94 94 ESE 6 9 30.09 1019 10 16 0.00 0.00
10:56 am 10:56 Mostly Cloudy 73 22.8 69 20.6 87 87 ENE 7 11 30.08 1019 10 16 0.00 0.00
11:27 am 11:27 Mostly Cloudy 73 23 70 21 89 89 SSE 6 9 30.08 1019 10 16 0.00 0.00
11:56 am 11:56 Mostly Cloudy 74 23.3 67 19.4 79 79 VRB 5 7 30.08 1019 10 16 0.00 0.00
12:56 pm 12:56 Sunny 78 25.6 65 18.3 64 64 SSE 7 11 30.05 1018 10 16 0.00 0.00
1:56 pm 13:56 Sunny 80 26.7 65 18.3 60 60 VRB 6 9 30.04 1017 10 16 0.00 0.00
2:56 pm 14:56 Partly Cloudy 81 27.2 65 18.3 58 58 SE 5 7 30.03 1017 10 16 0.00 0.00
3:56 pm 15:56 Sunny 80 26.7 65 18.3 60 60 VRB 6 9 30.01 1016 10 16 0.00 0.00
4:56 pm 16:56 Mostly Sunny 81 27.2 64 17.8 57 57 E 8 13 29.99 1015 10 16 0.00 0.00
5:56 pm 17:56 Sunny 80 26.7 64 17.8 58 58 ENE 6 9 29.99 1016 10 16 0.00 0.00
6:56 pm 18:56 Partly Cloudy 78 25.6 65 18.3 64 64 SSE 3 6 29.99 1016 10 16 0.00 0.00
7:56 pm 19:56 Mostly Cloudy 74 23.3 67 19.4 79 79 Calm 30.00 1016 10 16 0.00 0.00
8:56 pm 20:56 Clear 68 20 N/A N/A Calm 30.01 1016 10 16 0.00 0.00
9:56 pm 21:56 Clear 65 18.3 N/A N/A Calm 30.05 1018 10 16 0.00 0.00
10:56 pm 22:56 Clear 63 17.2 N/A N/A Calm 30.05 1018 10 16 0.00 0.00
11:56 pm 23:56 Clear 64 17.8 N/A N/A SE 3 6 30.04 1017 10 16 0.00 0.00

Powered by AerisWeather